Year,Month,Day,Hour,Minute,Value (Times are PST for temperature in C)
2014,02,13,00,00,3.70
2014,02,13,00,01,3.70
2014,02,13,00,02,3.70
2014,02,13,00,03,3.70
2014,02,13,00,04,3.70
2014,02,13,00,05,3.70
2014,02,13,00,06,3.70
2014,02,13,00,07,3.70
2014,02,13,00,08,3.70
2014,02,13,00,09,3.70
2014,02,13,00,10,3.70
2014,02,13,00,11,3.70
2014,02,13,00,12,3.70
2014,02,13,00,13,3.70
2014,02,13,00,14,3.70
2014,02,13,00,15,3.70
2014,02,13,00,16,3.70
2014,02,13,00,17,3.60
2014,02,13,00,18,3.60
2014,02,13,00,19,3.60
2014,02,13,00,20,3.60
2014,02,13,00,21,3.50
2014,02,13,00,22,3.50
2014,02,13,00,23,3.40
2014,02,13,00,24,3.40
2014,02,13,00,25,3.40
2014,02,13,00,26,3.40
2014,02,13,00,27,3.40
2014,02,13,00,28,3.30
2014,02,13,00,29,3.30
2014,02,13,00,30,3.30
2014,02,13,00,31,3.30
2014,02,13,00,32,3.20
2014,02,13,00,33,3.20
2014,02,13,00,34,3.20
2014,02,13,00,35,3.20
2014,02,13,00,36,3.20
2014,02,13,00,37,3.20
2014,02,13,00,38,3.20
2014,02,13,00,39,3.20
2014,02,13,00,40,3.20
2014,02,13,00,41,3.20
2014,02,13,00,42,3.20
2014,02,13,00,43,3.20
2014,02,13,00,44,3.20
2014,02,13,00,45,3.20
2014,02,13,00,46,3.20
2014,02,13,00,47,3.20
2014,02,13,00,48,3.20
2014,02,13,00,49,3.10
2014,02,13,00,50,3.10
2014,02,13,00,51,3.10
2014,02,13,00,52,3.10
2014,02,13,00,53,3.00
2014,02,13,00,54,3.10
2014,02,13,00,55,3.00
2014,02,13,00,56,3.10
2014,02,13,00,57,3.00
2014,02,13,00,58,3.00
2014,02,13,00,59,3.10
2014,02,13,01,00,3.10
2014,02,13,01,01,3.10
2014,02,13,01,02,3.10
2014,02,13,01,03,3.10
2014,02,13,01,04,3.10
2014,02,13,01,05,3.10
2014,02,13,01,06,3.10
2014,02,13,01,07,3.10
2014,02,13,01,08,3.10
2014,02,13,01,09,3.00
2014,02,13,01,10,3.00
2014,02,13,01,11,3.00
2014,02,13,01,12,3.00
2014,02,13,01,13,3.00
2014,02,13,01,14,2.90
2014,02,13,01,15,2.90
2014,02,13,01,16,2.90
2014,02,13,01,17,2.90
2014,02,13,01,18,2.90
2014,02,13,01,19,2.90
2014,02,13,01,20,2.80
2014,02,13,01,21,2.80
2014,02,13,01,22,2.80
2014,02,13,01,23,2.80
2014,02,13,01,24,2.80
2014,02,13,01,25,2.80
2014,02,13,01,26,2.80
2014,02,13,01,27,2.90
2014,02,13,01,28,2.90
2014,02,13,01,29,2.90
2014,02,13,01,30,2.90
2014,02,13,01,31,2.90
2014,02,13,01,32,2.90
2014,02,13,01,33,2.90
2014,02,13,01,34,2.90
2014,02,13,01,35,2.90
2014,02,13,01,36,2.90
2014,02,13,01,37,2.90
2014,02,13,01,38,2.90
2014,02,13,01,39,3.00
2014,02,13,01,40,3.00
2014,02,13,01,41,3.00
2014,02,13,01,42,3.00
2014,02,13,01,43,3.00
2014,02,13,01,44,2.90
2014,02,13,01,45,2.90
2014,02,13,01,46,2.90
2014,02,13,01,47,2.90
2014,02,13,01,48,3.00
2014,02,13,01,49,3.00
2014,02,13,01,50,3.00
2014,02,13,01,51,3.00
2014,02,13,01,52,2.90
2014,02,13,01,53,2.90
2014,02,13,01,54,2.90
2014,02,13,01,55,2.90
2014,02,13,01,56,3.00
2014,02,13,01,57,3.10
2014,02,13,01,58,3.10
2014,02,13,01,59,3.10
2014,02,13,02,00,3.10
2014,02,13,02,01,3.20
2014,02,13,02,02,3.20
2014,02,13,02,03,3.30
2014,02,13,02,04,3.20
2014,02,13,02,05,3.10
2014,02,13,02,06,3.10
2014,02,13,02,07,3.10
2014,02,13,02,08,3.10
2014,02,13,02,09,3.10
2014,02,13,02,10,3.10
2014,02,13,02,11,3.10
2014,02,13,02,12,3.10
2014,02,13,02,13,3.10
2014,02,13,02,14,3.00
2014,02,13,02,15,3.00
2014,02,13,02,16,3.00
2014,02,13,02,17,3.00
2014,02,13,02,18,3.00
2014,02,13,02,19,3.00
2014,02,13,02,20,3.10
2014,02,13,02,21,3.10
2014,02,13,02,22,3.10
2014,02,13,02,23,3.10
2014,02,13,02,24,3.10
2014,02,13,02,25,3.10
2014,02,13,02,26,3.10
2014,02,13,02,27,3.10
2014,02,13,02,28,3.10
2014,02,13,02,29,3.00
2014,02,13,02,30,3.00
2014,02,13,02,31,3.00
2014,02,13,02,32,3.00
2014,02,13,02,33,3.10
2014,02,13,02,34,3.10
2014,02,13,02,35,3.00
2014,02,13,02,36,3.00
2014,02,13,02,37,3.20
2014,02,13,02,38,3.30
2014,02,13,02,39,3.30
2014,02,13,02,40,3.40
2014,02,13,02,41,3.50
2014,02,13,02,42,3.50
2014,02,13,02,43,3.60
2014,02,13,02,44,3.60
2014,02,13,02,45,3.70
2014,02,13,02,46,3.70
2014,02,13,02,47,3.70
2014,02,13,02,48,3.90
2014,02,13,02,49,4.00
2014,02,13,02,50,4.10
2014,02,13,02,51,4.10
2014,02,13,02,52,4.10
2014,02,13,02,53,4.00
2014,02,13,02,54,3.90
2014,02,13,02,55,3.80
2014,02,13,02,56,3.80
2014,02,13,02,57,3.70
2014,02,13,02,58,3.60
2014,02,13,02,59,3.50
2014,02,13,03,00,3.50
2014,02,13,03,01,3.50
2014,02,13,03,02,3.50
2014,02,13,03,03,3.50
2014,02,13,03,04,3.40
2014,02,13,03,05,3.50
2014,02,13,03,06,3.50
2014,02,13,03,07,3.60
2014,02,13,03,08,3.60
2014,02,13,03,09,3.60
2014,02,13,03,10,3.60
2014,02,13,03,11,3.50
2014,02,13,03,12,3.50
2014,02,13,03,13,3.50
2014,02,13,03,14,3.50
2014,02,13,03,15,3.60
2014,02,13,03,16,3.50
2014,02,13,03,17,3.40
2014,02,13,03,18,3.30
2014,02,13,03,19,3.30
2014,02,13,03,20,3.40
2014,02,13,03,21,3.40
2014,02,13,03,22,3.50
2014,02,13,03,23,3.60
2014,02,13,03,24,3.70
2014,02,13,03,25,3.70
2014,02,13,03,26,3.70
2014,02,13,03,27,3.70
2014,02,13,03,28,3.70
2014,02,13,03,29,3.70
2014,02,13,03,30,3.70
2014,02,13,03,31,3.70
2014,02,13,03,32,3.80
2014,02,13,03,33,3.80
2014,02,13,03,34,3.80
2014,02,13,03,35,3.80
2014,02,13,03,36,3.70
2014,02,13,03,37,3.70
2014,02,13,03,38,3.80
2014,02,13,03,39,3.80
2014,02,13,03,40,3.80
2014,02,13,03,41,3.80
2014,02,13,03,42,3.80
2014,02,13,03,43,3.80
2014,02,13,03,44,3.80
2014,02,13,03,45,3.80
2014,02,13,03,46,3.90
2014,02,13,03,47,3.90
2014,02,13,03,48,4.00
2014,02,13,03,49,4.10
2014,02,13,03,50,4.10
2014,02,13,03,51,4.20
2014,02,13,03,52,4.20
2014,02,13,03,53,4.20
2014,02,13,03,54,4.20
2014,02,13,03,55,4.10
2014,02,13,03,56,4.10
2014,02,13,03,57,4.10
2014,02,13,03,58,4.10
2014,02,13,03,59,4.00
2014,02,13,04,00,3.90
2014,02,13,04,01,3.90
2014,02,13,04,02,3.80
2014,02,13,04,03,3.90
2014,02,13,04,04,3.90
2014,02,13,04,05,3.80
2014,02,13,04,06,3.80
2014,02,13,04,07,3.80
2014,02,13,04,08,3.80
2014,02,13,04,09,3.80
2014,02,13,04,10,3.70
2014,02,13,04,11,3.70
2014,02,13,04,12,3.80
2014,02,13,04,13,3.80
2014,02,13,04,14,4.00
2014,02,13,04,15,4.10
2014,02,13,04,16,4.10
2014,02,13,04,17,4.10
2014,02,13,04,18,4.10
2014,02,13,04,19,4.10
2014,02,13,04,20,4.10
2014,02,13,04,21,4.10
2014,02,13,04,22,4.10
2014,02,13,04,23,4.10
2014,02,13,04,24,4.10
2014,02,13,04,25,4.10
2014,02,13,04,26,4.10
2014,02,13,04,27,4.10
2014,02,13,04,28,4.10
2014,02,13,04,29,4.10
2014,02,13,04,30,4.00
2014,02,13,04,31,4.10
2014,02,13,04,32,4.00
2014,02,13,04,33,3.90
2014,02,13,04,34,4.00
2014,02,13,04,35,4.00
2014,02,13,04,36,4.10
2014,02,13,04,37,4.10
2014,02,13,04,38,4.40
2014,02,13,04,39,4.60
2014,02,13,04,40,4.80
2014,02,13,04,41,4.90
2014,02,13,04,42,4.80
2014,02,13,04,43,4.80
2014,02,13,04,44,4.80
2014,02,13,04,45,4.80
2014,02,13,04,46,4.70
2014,02,13,04,47,4.60
2014,02,13,04,48,4.60
2014,02,13,04,49,4.50
2014,02,13,04,50,4.60
2014,02,13,04,51,4.70
2014,02,13,04,52,4.60
2014,02,13,04,53,4.60
2014,02,13,04,54,4.60
2014,02,13,04,55,4.50
2014,02,13,04,56,4.50
2014,02,13,04,57,4.50
2014,02,13,04,58,4.40
2014,02,13,04,59,4.30
2014,02,13,05,00,4.30
2014,02,13,05,01,4.40
2014,02,13,05,02,4.50
2014,02,13,05,03,4.60
2014,02,13,05,04,4.60
2014,02,13,05,05,4.60
2014,02,13,05,06,4.60
2014,02,13,05,07,4.60
2014,02,13,05,08,4.70
2014,02,13,05,09,4.80
2014,02,13,05,10,4.90
2014,02,13,05,11,5.00
2014,02,13,05,12,5.00
2014,02,13,05,13,4.90
2014,02,13,05,14,5.10
2014,02,13,05,15,5.30
2014,02,13,05,16,5.50
2014,02,13,05,17,5.60
2014,02,13,05,18,5.60
2014,02,13,05,19,5.50
2014,02,13,05,20,5.30
2014,02,13,05,21,5.20
2014,02,13,05,22,5.30
2014,02,13,05,23,5.30
2014,02,13,05,24,5.40
2014,02,13,05,25,5.70
2014,02,13,05,26,5.70
2014,02,13,05,27,5.60
2014,02,13,05,28,5.60
2014,02,13,05,29,5.70
2014,02,13,05,30,5.70
2014,02,13,05,31,5.70
2014,02,13,05,32,5.70
2014,02,13,05,33,5.80
2014,02,13,05,34,5.90
2014,02,13,05,35,6.20
2014,02,13,05,36,6.20
2014,02,13,05,37,6.20
2014,02,13,05,38,6.40
2014,02,13,05,39,6.60
2014,02,13,05,40,6.70
2014,02,13,05,41,6.90
2014,02,13,05,42,7.00
2014,02,13,05,43,7.00
2014,02,13,05,44,7.10
2014,02,13,05,45,7.10
2014,02,13,05,46,7.00
2014,02,13,05,47,6.90
2014,02,13,05,48,6.90
2014,02,13,05,49,6.90
2014,02,13,05,50,6.90
2014,02,13,05,51,6.90
2014,02,13,05,52,6.90
2014,02,13,05,53,6.90
2014,02,13,05,54,6.80
2014,02,13,05,55,6.80
2014,02,13,05,56,6.70
2014,02,13,05,57,6.70
2014,02,13,05,58,6.70
2014,02,13,05,59,6.70
2014,02,13,06,00,6.60
2014,02,13,06,01,6.60
2014,02,13,06,02,6.50
2014,02,13,06,03,6.50
2014,02,13,06,04,6.40
2014,02,13,06,05,6.30
2014,02,13,06,06,6.20
2014,02,13,06,07,6.10
2014,02,13,06,08,6.00
2014,02,13,06,09,5.90
2014,02,13,06,10,5.90
2014,02,13,06,11,5.90
2014,02,13,06,12,5.80
2014,02,13,06,13,5.80
2014,02,13,06,14,5.80
2014,02,13,06,15,5.60
2014,02,13,06,16,5.50
2014,02,13,06,17,5.40
2014,02,13,06,18,5.40
2014,02,13,06,19,5.30
2014,02,13,06,20,5.40
2014,02,13,06,21,5.40
2014,02,13,06,22,5.40
2014,02,13,06,23,5.30
2014,02,13,06,24,5.30
2014,02,13,06,25,5.20
2014,02,13,06,26,5.20
2014,02,13,06,27,5.20
2014,02,13,06,28,5.10
2014,02,13,06,29,5.20
2014,02,13,06,30,5.60
2014,02,13,06,31,6.00
2014,02,13,06,32,6.30
2014,02,13,06,33,6.50
2014,02,13,06,34,6.70
2014,02,13,06,35,6.80
2014,02,13,06,36,6.90
2014,02,13,06,37,7.00
2014,02,13,06,38,7.20
2014,02,13,06,39,7.20
2014,02,13,06,40,7.30
2014,02,13,06,41,7.30
2014,02,13,06,42,7.20
2014,02,13,06,43,7.10
2014,02,13,06,44,6.90
2014,02,13,06,45,6.70
2014,02,13,06,46,6.70
2014,02,13,06,47,6.70
2014,02,13,06,48,6.60
2014,02,13,06,49,6.50
2014,02,13,06,50,6.50
2014,02,13,06,51,6.60
2014,02,13,06,52,6.60
2014,02,13,06,53,6.70
2014,02,13,06,54,6.70
2014,02,13,06,55,6.70
2014,02,13,06,56,6.80
2014,02,13,06,57,6.70
2014,02,13,06,58,6.70
2014,02,13,06,59,6.50
2014,02,13,07,00,6.40
2014,02,13,07,01,6.30
2014,02,13,07,02,6.20
2014,02,13,07,03,6.20
2014,02,13,07,04,6.30
2014,02,13,07,05,6.30
2014,02,13,07,06,6.30
2014,02,13,07,07,6.40
2014,02,13,07,08,6.40
2014,02,13,07,09,6.40
2014,02,13,07,10,6.40
2014,02,13,07,11,6.40
2014,02,13,07,12,6.50
2014,02,13,07,13,6.50
2014,02,13,07,14,6.60
2014,02,13,07,15,6.60
2014,02,13,07,16,6.60
2014,02,13,07,17,6.50
2014,02,13,07,18,6.40
2014,02,13,07,19,6.30
2014,02,13,07,20,6.10
2014,02,13,07,21,6.00
2014,02,13,07,22,6.00
2014,02,13,07,23,6.00
2014,02,13,07,24,6.00
2014,02,13,07,25,6.10
2014,02,13,07,26,6.20
2014,02,13,07,27,6.30
2014,02,13,07,28,6.40
2014,02,13,07,29,6.50
2014,02,13,07,30,6.70
2014,02,13,07,31,6.80
2014,02,13,07,32,6.80
2014,02,13,07,33,6.80
2014,02,13,07,34,6.90
2014,02,13,07,35,6.90
2014,02,13,07,36,6.90
2014,02,13,07,37,6.90
2014,02,13,07,38,6.90
2014,02,13,07,39,6.90
2014,02,13,07,40,6.90
2014,02,13,07,41,7.00
2014,02,13,07,42,7.00
2014,02,13,07,43,7.10
2014,02,13,07,44,7.00
2014,02,13,07,45,7.00
2014,02,13,07,46,6.90
2014,02,13,07,47,6.80
2014,02,13,07,48,6.60
2014,02,13,07,49,6.50
2014,02,13,07,50,6.40
2014,02,13,07,51,6.30
2014,02,13,07,52,6.30
2014,02,13,07,53,6.30
2014,02,13,07,54,6.20
2014,02,13,07,55,6.10
2014,02,13,07,56,6.00
2014,02,13,07,57,5.90
2014,02,13,07,58,5.80
2014,02,13,07,59,5.70
2014,02,13,08,00,5.50
2014,02,13,08,01,5.40
2014,02,13,08,02,5.30
2014,02,13,08,03,5.20
2014,02,13,08,04,5.10
2014,02,13,08,05,5.10
2014,02,13,08,06,5.20
2014,02,13,08,07,5.30
2014,02,13,08,08,5.30
2014,02,13,08,09,5.30
2014,02,13,08,10,5.30
2014,02,13,08,11,5.20
2014,02,13,08,12,5.20
2014,02,13,08,13,5.20
2014,02,13,08,14,5.20
2014,02,13,08,15,5.20
2014,02,13,08,16,5.30
2014,02,13,08,17,5.30
2014,02,13,08,18,5.50
2014,02,13,08,19,5.60
2014,02,13,08,20,5.60
2014,02,13,08,21,5.70
2014,02,13,08,22,5.70
2014,02,13,08,23,5.70
2014,02,13,08,24,5.70
2014,02,13,08,25,5.80
2014,02,13,08,26,5.80
2014,02,13,08,27,5.70
2014,02,13,08,28,5.70
2014,02,13,08,29,5.70
2014,02,13,08,30,5.70
2014,02,13,08,31,5.80
2014,02,13,08,32,5.80
2014,02,13,08,33,5.80
2014,02,13,08,34,6.00
2014,02,13,08,35,6.10
2014,02,13,08,36,6.20
2014,02,13,08,37,6.20
2014,02,13,08,38,6.20
2014,02,13,08,39,6.20
2014,02,13,08,40,6.30
2014,02,13,08,41,6.40
2014,02,13,08,42,6.50
2014,02,13,08,43,6.50
2014,02,13,08,44,6.60
2014,02,13,08,45,6.60
2014,02,13,08,46,6.70
2014,02,13,08,47,6.70
2014,02,13,08,48,6.80
2014,02,13,08,49,6.90
2014,02,13,08,50,6.90
2014,02,13,08,51,7.10
2014,02,13,08,52,7.20
2014,02,13,08,53,7.30
2014,02,13,08,54,7.50
2014,02,13,08,55,7.60
2014,02,13,08,56,7.70
2014,02,13,08,57,7.70
2014,02,13,08,58,7.80
2014,02,13,08,59,7.80
2014,02,13,09,00,7.80
2014,02,13,09,01,7.80
2014,02,13,09,02,7.80
2014,02,13,09,03,7.80
2014,02,13,09,04,7.70
2014,02,13,09,05,7.70
2014,02,13,09,06,7.70
2014,02,13,09,07,7.70
2014,02,13,09,08,7.60
2014,02,13,09,09,7.60
2014,02,13,09,10,7.60
2014,02,13,09,11,7.50
2014,02,13,09,12,7.40
2014,02,13,09,13,7.30
2014,02,13,09,14,7.10
2014,02,13,09,15,6.90
2014,02,13,09,16,6.80
2014,02,13,09,17,6.70
2014,02,13,09,18,6.60
2014,02,13,09,19,6.70
2014,02,13,09,20,6.70
2014,02,13,09,21,6.80
2014,02,13,09,22,6.90
2014,02,13,09,23,7.10
2014,02,13,09,24,7.10
2014,02,13,09,25,7.20
2014,02,13,09,26,7.20
2014,02,13,09,27,7.30
2014,02,13,09,28,7.40
2014,02,13,09,29,7.40
2014,02,13,09,30,7.40
2014,02,13,09,31,7.40
2014,02,13,09,32,7.40
2014,02,13,09,33,7.30
2014,02,13,09,34,7.30
2014,02,13,09,35,7.30
2014,02,13,09,36,7.30
2014,02,13,09,37,7.20
2014,02,13,09,38,7.20
2014,02,13,09,39,7.20
2014,02,13,09,40,7.20
2014,02,13,09,41,7.30
2014,02,13,09,42,7.40
2014,02,13,09,43,7.40
2014,02,13,09,44,7.50
2014,02,13,09,45,7.60
2014,02,13,09,46,7.70
2014,02,13,09,47,7.80
2014,02,13,09,48,7.90
2014,02,13,09,49,7.90
2014,02,13,09,50,8.00
2014,02,13,09,51,8.10
2014,02,13,09,52,8.10
2014,02,13,09,53,8.20
2014,02,13,09,54,8.20
2014,02,13,09,55,8.20
2014,02,13,09,56,8.20
2014,02,13,09,57,8.20
2014,02,13,09,58,8.20
2014,02,13,09,59,8.20
2014,02,13,10,00,8.20
2014,02,13,10,01,8.20
2014,02,13,10,02,8.20
2014,02,13,10,03,8.20
2014,02,13,10,04,8.30
2014,02,13,10,05,8.40
2014,02,13,10,06,8.50
2014,02,13,10,07,8.60
2014,02,13,10,08,8.60
2014,02,13,10,09,8.70
2014,02,13,10,10,8.80
2014,02,13,10,11,8.80
2014,02,13,10,12,8.90
2014,02,13,10,13,8.90
2014,02,13,10,14,9.00
2014,02,13,10,15,9.00
2014,02,13,10,16,9.00
2014,02,13,10,17,9.00
2014,02,13,10,18,9.00
2014,02,13,10,19,8.90
2014,02,13,10,20,8.90
2014,02,13,10,21,8.90
2014,02,13,10,22,8.90
2014,02,13,10,23,8.90
2014,02,13,10,24,8.90
2014,02,13,10,25,8.90
2014,02,13,10,26,8.80
2014,02,13,10,27,8.80
2014,02,13,10,28,8.80
2014,02,13,10,29,8.80
2014,02,13,10,30,8.70
2014,02,13,10,31,8.70
2014,02,13,10,32,8.60
2014,02,13,10,33,8.60
2014,02,13,10,34,8.60
2014,02,13,10,35,8.70
2014,02,13,10,36,8.70
2014,02,13,10,37,8.70
2014,02,13,10,38,8.70
2014,02,13,10,39,8.70
2014,02,13,10,40,8.70
2014,02,13,10,41,8.70
2014,02,13,10,42,8.70
2014,02,13,10,43,8.70
2014,02,13,10,44,8.70
2014,02,13,10,45,8.70
2014,02,13,10,46,8.70
2014,02,13,10,47,8.80
2014,02,13,10,48,8.80
2014,02,13,10,49,8.90
2014,02,13,10,50,8.90
2014,02,13,10,51,8.90
2014,02,13,10,52,8.90
2014,02,13,10,53,9.00
2014,02,13,10,54,9.00
2014,02,13,10,55,9.10
2014,02,13,10,56,9.20
2014,02,13,10,57,9.30
2014,02,13,10,58,9.40
2014,02,13,10,59,9.50
2014,02,13,11,00,9.60
2014,02,13,11,01,9.70
2014,02,13,11,02,9.80
2014,02,13,11,03,9.80
2014,02,13,11,04,9.80
2014,02,13,11,05,9.90
2014,02,13,11,06,9.90
2014,02,13,11,07,9.90
2014,02,13,11,08,9.90
2014,02,13,11,09,9.90
2014,02,13,11,10,9.90
2014,02,13,11,11,9.90
2014,02,13,11,12,9.90
2014,02,13,11,13,9.90
2014,02,13,11,14,9.90
2014,02,13,11,15,9.80
2014,02,13,11,16,9.80
2014,02,13,11,17,9.80
2014,02,13,11,18,9.80
2014,02,13,11,19,9.70
2014,02,13,11,20,9.70
2014,02,13,11,21,9.70
2014,02,13,11,22,9.60
2014,02,13,11,23,9.60
2014,02,13,11,24,9.60
2014,02,13,11,25,9.70
2014,02,13,11,26,9.70
2014,02,13,11,27,9.70
2014,02,13,11,28,9.70
2014,02,13,11,29,9.70
2014,02,13,11,30,9.80
2014,02,13,11,31,9.80
2014,02,13,11,32,9.90
2014,02,13,11,33,9.90
2014,02,13,11,34,10.00
2014,02,13,11,35,10.10
2014,02,13,11,36,10.10
2014,02,13,11,37,10.20
2014,02,13,11,38,10.20
2014,02,13,11,39,10.30
2014,02,13,11,40,10.30
2014,02,13,11,41,10.30
2014,02,13,11,42,10.40
2014,02,13,11,43,10.40
2014,02,13,11,44,10.50
2014,02,13,11,45,10.60
2014,02,13,11,46,10.70
2014,02,13,11,47,10.70
2014,02,13,11,48,10.80
2014,02,13,11,49,10.80
2014,02,13,11,50,10.70
2014,02,13,11,51,10.60
2014,02,13,11,52,10.60
2014,02,13,11,53,10.70
2014,02,13,11,54,10.70
2014,02,13,11,55,10.70
2014,02,13,11,56,10.70
2014,02,13,11,57,10.80
2014,02,13,11,58,10.70
2014,02,13,11,59,10.70
2014,02,13,12,00,10.70
2014,02,13,12,01,10.70
2014,02,13,12,02,10.70
2014,02,13,12,03,10.70
2014,02,13,12,04,10.70
2014,02,13,12,05,10.70
2014,02,13,12,06,10.70
2014,02,13,12,07,10.60
2014,02,13,12,08,10.50
2014,02,13,12,09,10.50
2014,02,13,12,10,10.40
2014,02,13,12,11,10.30
2014,02,13,12,12,10.30
2014,02,13,12,13,10.30
2014,02,13,12,14,10.30
2014,02,13,12,15,10.30
2014,02,13,12,16,10.30
2014,02,13,12,17,10.30
2014,02,13,12,18,10.40
2014,02,13,12,19,10.40
2014,02,13,12,20,10.50
2014,02,13,12,21,10.60
2014,02,13,12,22,10.60
2014,02,13,12,23,10.60
2014,02,13,12,24,10.70
2014,02,13,12,25,10.70
2014,02,13,12,26,10.70
2014,02,13,12,27,10.70
2014,02,13,12,28,10.70
2014,02,13,12,29,10.70
2014,02,13,12,30,10.70
2014,02,13,12,31,10.70
2014,02,13,12,32,10.70
2014,02,13,12,33,10.80
2014,02,13,12,34,10.80
2014,02,13,12,35,10.80
2014,02,13,12,36,10.80
2014,02,13,12,37,10.70
2014,02,13,12,38,10.70
2014,02,13,12,39,10.70
2014,02,13,12,40,10.80
2014,02,13,12,41,10.80
2014,02,13,12,42,10.80
2014,02,13,12,43,10.90
2014,02,13,12,44,10.90
2014,02,13,12,45,10.80
2014,02,13,12,46,10.80
2014,02,13,12,47,10.80
2014,02,13,12,48,10.80
2014,02,13,12,49,10.80
2014,02,13,12,50,10.90
2014,02,13,12,51,11.00
2014,02,13,12,52,11.10
2014,02,13,12,53,11.20
2014,02,13,12,54,11.30
2014,02,13,12,55,11.50
2014,02,13,12,56,11.60
2014,02,13,12,57,11.70
2014,02,13,12,58,11.80
2014,02,13,12,59,11.80
2014,02,13,13,00,11.90
2014,02,13,13,01,11.90
2014,02,13,13,02,12.00
2014,02,13,13,03,12.00
2014,02,13,13,04,12.10
2014,02,13,13,05,12.20
2014,02,13,13,06,12.20
2014,02,13,13,07,12.20
2014,02,13,13,08,12.10
2014,02,13,13,09,11.90
2014,02,13,13,10,11.70
2014,02,13,13,11,11.50
2014,02,13,13,12,11.40
2014,02,13,13,13,11.30
2014,02,13,13,14,11.30
2014,02,13,13,15,11.20
2014,02,13,13,16,11.10
2014,02,13,13,17,11.10
2014,02,13,13,18,11.10
2014,02,13,13,19,11.10
2014,02,13,13,20,11.20
2014,02,13,13,21,11.20
2014,02,13,13,22,11.20
2014,02,13,13,23,11.20
2014,02,13,13,24,11.20
2014,02,13,13,25,11.20
2014,02,13,13,26,11.20
2014,02,13,13,27,11.20
2014,02,13,13,28,11.10
2014,02,13,13,29,11.10
2014,02,13,13,30,11.10
2014,02,13,13,31,11.10
2014,02,13,13,32,11.20
2014,02,13,13,33,11.20
2014,02,13,13,34,11.20
2014,02,13,13,35,11.10
2014,02,13,13,36,11.10
2014,02,13,13,37,11.00
2014,02,13,13,38,10.90
2014,02,13,13,39,10.90
2014,02,13,13,40,10.90
2014,02,13,13,41,10.90
2014,02,13,13,42,11.00
2014,02,13,13,43,11.10
2014,02,13,13,44,11.20
2014,02,13,13,45,11.20
2014,02,13,13,46,11.20
2014,02,13,13,47,11.30
2014,02,13,13,48,11.20
2014,02,13,13,49,11.20
2014,02,13,13,50,11.20
2014,02,13,13,51,11.20
2014,02,13,13,52,11.20
2014,02,13,13,53,11.30
2014,02,13,13,54,11.30
2014,02,13,13,55,11.30
2014,02,13,13,56,11.30
2014,02,13,13,57,11.40
2014,02,13,13,58,11.40
2014,02,13,13,59,11.40
2014,02,13,14,00,11.40
2014,02,13,14,01,11.40
2014,02,13,14,02,11.40
2014,02,13,14,03,11.40
2014,02,13,14,04,11.50
2014,02,13,14,05,11.50
2014,02,13,14,06,11.50
2014,02,13,14,07,11.40
2014,02,13,14,08,11.40
2014,02,13,14,09,11.40
2014,02,13,14,10,11.50
2014,02,13,14,11,11.50
2014,02,13,14,12,11.60
2014,02,13,14,13,11.70
2014,02,13,14,14,11.80
2014,02,13,14,15,11.80
2014,02,13,14,16,11.90
2014,02,13,14,17,11.90
2014,02,13,14,18,11.90
2014,02,13,14,19,11.90
2014,02,13,14,20,11.90
2014,02,13,14,21,11.90
2014,02,13,14,22,11.90
2014,02,13,14,23,11.90
2014,02,13,14,24,11.90
2014,02,13,14,25,11.80
2014,02,13,14,26,11.70
2014,02,13,14,27,11.60
2014,02,13,14,28,11.50
2014,02,13,14,29,11.40
2014,02,13,14,30,11.40
2014,02,13,14,31,11.30
2014,02,13,14,32,11.30
2014,02,13,14,33,11.20
2014,02,13,14,34,11.20
2014,02,13,14,35,11.20
2014,02,13,14,36,11.20
2014,02,13,14,37,11.20
2014,02,13,14,38,11.20
2014,02,13,14,39,11.20
2014,02,13,14,40,11.20
2014,02,13,14,41,11.20
2014,02,13,14,42,11.20
2014,02,13,14,43,11.20
2014,02,13,14,44,11.10
2014,02,13,14,45,11.10
2014,02,13,14,46,11.00
2014,02,13,14,47,11.00
2014,02,13,14,48,11.00
2014,02,13,14,49,11.00
2014,02,13,14,50,11.00
2014,02,13,14,51,11.00
2014,02,13,14,52,11.00
2014,02,13,14,53,11.00
2014,02,13,14,54,11.00
2014,02,13,14,55,11.00
2014,02,13,14,56,11.00
2014,02,13,14,57,11.00
2014,02,13,14,58,10.90
2014,02,13,14,59,10.90
2014,02,13,15,00,11.00
2014,02,13,15,01,11.00
2014,02,13,15,02,11.10
2014,02,13,15,03,11.10
2014,02,13,15,04,11.10
2014,02,13,15,05,11.10
2014,02,13,15,06,11.10
2014,02,13,15,07,11.10
2014,02,13,15,08,11.10
2014,02,13,15,09,11.00
2014,02,13,15,10,11.10
2014,02,13,15,11,11.10
2014,02,13,15,12,11.10
2014,02,13,15,13,11.10
2014,02,13,15,14,11.10
2014,02,13,15,15,11.10
2014,02,13,15,16,11.20
2014,02,13,15,17,11.20
2014,02,13,15,18,11.30
2014,02,13,15,19,11.30
2014,02,13,15,20,11.30
2014,02,13,15,21,11.40
2014,02,13,15,22,11.40
2014,02,13,15,23,11.30
2014,02,13,15,24,11.30
2014,02,13,15,25,11.30
2014,02,13,15,26,11.30
2014,02,13,15,27,11.20
2014,02,13,15,28,11.20
2014,02,13,15,29,11.10
2014,02,13,15,30,11.00
2014,02,13,15,31,10.90
2014,02,13,15,32,10.90
2014,02,13,15,33,10.90
2014,02,13,15,34,10.90
2014,02,13,15,35,10.90
2014,02,13,15,36,10.90
2014,02,13,15,37,10.80
2014,02,13,15,38,10.80
2014,02,13,15,39,10.80
2014,02,13,15,40,10.80
2014,02,13,15,41,10.70
2014,02,13,15,42,10.70
2014,02,13,15,43,10.70
2014,02,13,15,44,10.70
2014,02,13,15,45,10.70
2014,02,13,15,46,10.80
2014,02,13,15,47,10.80
2014,02,13,15,48,10.70
2014,02,13,15,49,10.70
2014,02,13,15,50,10.70
2014,02,13,15,51,10.60
2014,02,13,15,52,10.60
2014,02,13,15,53,10.60
2014,02,13,15,54,10.60
2014,02,13,15,55,10.50
2014,02,13,15,56,10.50
2014,02,13,15,57,10.50
2014,02,13,15,58,10.50
2014,02,13,15,59,10.50
2014,02,13,16,00,10.50
2014,02,13,16,01,10.50
2014,02,13,16,02,10.40
2014,02,13,16,03,10.40
2014,02,13,16,04,10.40
2014,02,13,16,05,10.40
2014,02,13,16,06,10.40
2014,02,13,16,07,10.40
2014,02,13,16,08,10.40
2014,02,13,16,09,10.40
2014,02,13,16,10,10.40
2014,02,13,16,11,10.30
2014,02,13,16,12,10.30
2014,02,13,16,13,10.20
2014,02,13,16,14,10.20
2014,02,13,16,15,10.20
2014,02,13,16,16,10.20
2014,02,13,16,17,10.20
2014,02,13,16,18,10.20
2014,02,13,16,19,10.30
2014,02,13,16,20,10.30
2014,02,13,16,21,10.30
2014,02,13,16,22,10.30
2014,02,13,16,23,10.30
2014,02,13,16,24,10.30
2014,02,13,16,25,10.30
2014,02,13,16,26,10.20
2014,02,13,16,27,10.20
2014,02,13,16,28,10.10
2014,02,13,16,29,10.10
2014,02,13,16,30,10.10
2014,02,13,16,31,10.10
2014,02,13,16,32,10.10
2014,02,13,16,33,10.00
2014,02,13,16,34,10.00
2014,02,13,16,35,10.00
2014,02,13,16,36,9.90
2014,02,13,16,37,9.90
2014,02,13,16,38,9.80
2014,02,13,16,39,9.80
2014,02,13,16,40,9.70
2014,02,13,16,41,9.70
2014,02,13,16,42,9.60
2014,02,13,16,43,9.60
2014,02,13,16,44,9.60
2014,02,13,16,45,9.60
2014,02,13,16,46,9.50
2014,02,13,16,47,9.40
2014,02,13,16,48,9.40
2014,02,13,16,49,9.30
2014,02,13,16,50,9.30
2014,02,13,16,51,9.30
2014,02,13,16,52,9.30
2014,02,13,16,53,9.30
2014,02,13,16,54,9.40
2014,02,13,16,55,9.40
2014,02,13,16,56,9.40
2014,02,13,16,57,9.40
2014,02,13,16,58,9.40
2014,02,13,16,59,9.40
2014,02,13,17,00,9.30
2014,02,13,17,01,9.30
2014,02,13,17,02,9.20
2014,02,13,17,03,9.20
2014,02,13,17,04,9.10
2014,02,13,17,05,9.10
2014,02,13,17,06,9.00
2014,02,13,17,07,9.00
2014,02,13,17,08,8.90
2014,02,13,17,09,8.80
2014,02,13,17,10,8.70
2014,02,13,17,11,8.70
2014,02,13,17,12,8.60
2014,02,13,17,13,8.50
2014,02,13,17,14,8.50
2014,02,13,17,15,8.40
2014,02,13,17,16,8.30
2014,02,13,17,17,8.20
2014,02,13,17,18,8.20
2014,02,13,17,19,8.10
2014,02,13,17,20,8.00
2014,02,13,17,21,7.90
2014,02,13,17,22,7.80
2014,02,13,17,23,7.80
2014,02,13,17,24,7.70
2014,02,13,17,25,7.60
2014,02,13,17,26,7.60
2014,02,13,17,27,7.50
2014,02,13,17,28,7.40
2014,02,13,17,29,7.30
2014,02,13,17,30,7.30
2014,02,13,17,31,7.20
2014,02,13,17,32,7.20
2014,02,13,17,33,7.20
2014,02,13,17,34,7.10
2014,02,13,17,35,7.00
2014,02,13,17,36,6.90
2014,02,13,17,37,6.80
2014,02,13,17,38,6.80
2014,02,13,17,39,6.70
2014,02,13,17,40,6.70
2014,02,13,17,41,6.80
2014,02,13,17,42,6.70
2014,02,13,17,43,6.70
2014,02,13,17,44,6.60
2014,02,13,17,45,6.50
2014,02,13,17,46,6.40
2014,02,13,17,47,6.40
2014,02,13,17,48,6.40
2014,02,13,17,49,6.40
2014,02,13,17,50,6.30
2014,02,13,17,51,6.30
2014,02,13,17,52,6.20
2014,02,13,17,53,6.20